Location: Moscow
(38.8570°N, 84.2291°W)
Time: 22:46:45
(UTC+00:00)

Cosmos 1943 Rocket - Pass Details

Date: 15 November 2025
Orbit: 812 x 841 km, 71.0° (Epoch: 14 December)

Event Time Altitude Azimuth Distance (km) Brightness Sun altitude
Rises 23:21:27 0° 198° (SSW) 3,373 5.8 -11.6°
Reaches altitude 10° 23:23:53 10° 197° (SSW) 2,440 5.0 -12.0°
Maximum altitude 23:29:29 81° 110° (ESE) 847 2.1 -13.1°
Drops below altitude 10° 23:35:05 10° 25° (NNE) 2,438 4.2 -14.2°
Enters shadow 23:36:21 - 24° (NNE) 2,924 4.7 -14.4°
